Back to catalog

STARLINK-33935

AliveCommunicationsVLEO
NORAD 63791·PAYLOAD·🇺🇸 United States

Launched May 2, 2025 from Cape Canaveral Space Force Station

Loading…

Next Passes (next 24 hours)

TLE

FreshSource: CelesTrak SupGP

Epoch: Sep 14, 2026, 14:17 UTC

1 63791C 25091S   26257.59562500 -.00028668  00000+0 -10384-2 0  2573
2 63791  42.9998  66.0140 0001432 265.4872 292.6034 15.27592149    12

Track STARLINK-33935 in real time with AllMySat

Download on the App Store